Overview Statistics Trail Chart Weather Telemetry Raw packets
 

This is the latest recevied weather packets stored in our database for station/object N9DMT-13. If no packets are shown the sender has not sent any weather packets the latest 10 day(s).

<< 60 61 62 63 64 65 66 >>
Time Temp. Humidity Pressure Rain* Wind** Luminosity Snow
1777439955 10.56° C 60% 982.2 hPa 0 mm - - -
1777439654 11.11° C 60% 982.1 hPa 0 mm - - -
1777439354 10.56° C 60% 982.1 hPa 0 mm - - -
1777439053 11.11° C 61% 982.3 hPa 0 mm - - -
1777438752 11.11° C 60% 982.1 hPa 0 mm - - -
1777438452 11.11° C 59% 982.4 hPa 0 mm - - -
1777438151 11.11° C 60% 982.2 hPa 0 mm - - -
1777437850 11.11° C 61% 982.3 hPa 0 mm - - -
1777437550 11.11° C 60% 982.3 hPa 0 mm - - -
1777437249 11.11° C 61% 982.1 hPa 0 mm - - -
1777436948 11.11° C 62% 982 hPa 0 mm - - -
1777436648 11.11° C 64% 982.2 hPa 0 mm - - -
1777436347 11.11° C 65% 982.3 hPa 0 mm - - -
1777436046 11.11° C 61% 982.4 hPa 0 mm - - -
1777435445 10.56° C 65% 982.5 hPa 0 mm - - -
1777435144 10.56° C 67% 982.6 hPa 0 mm - - -
1777434843 10.56° C 67% 982.5 hPa 0 mm - - -
1777434542 10° C 69% 982.5 hPa 0 mm - - -
1777434242 10° C 71% 982.4 hPa 0 mm - - -
1777433941 10° C 72% 982.4 hPa 0 mm - - -
1777433640 10° C 70% 982.5 hPa 0 mm - - -
1777433340 10° C 73% 982.4 hPa 0 mm - - -
1777433039 10° C 74% 982.4 hPa 0 mm - - -
1777432738 10° C 75% 982.2 hPa 0 mm - - -
1777432437 10° C 77% 982.4 hPa 0 mm - - -

* Rain latest hour (hover to see other rain measurements)
** Current wind speed in m/s (hover to see current wind gust speed)